Location: LewisvilleTX
(33.0462°N, 96.9942°W)
Time: 13:13:07
(UTC+00:00)

MANDRAKE 2 BAKER - Pass Details

Date: 29 May 2022
Orbit: 516 x 532 km, 97.6° (Epoch: 30 June)

Event Time Altitude Azimuth Distance (km) Brightness Sun altitude
Exits shadow 08:10:16 24° 359° (N) 1,122 ? -29.9°
Drops below altitude 10° 08:11:53 10° 354° (N) 1,777 ? -29.7°
Sets 08:14:00 0° 352° (N) 2,668 ? -29.5°
